Regional Weather Roundup
Issued by NWS Glasgow, MT

Home | Current Version | Previous Version | Text Only | Print | Product List | Glossary On
Versions: 1 2 3 4 5 6 7 8 9 10 11 12 13 14 15 16 17 18 19 20 21 22 23 24 25 26 27 28 29 30 31 32 33 34 35 36 37 38 39 40 41 42 43 44 45 46 47 48 49 50
000
ASUS45 KGGW 312215
RWRGGW
HOURLY REGIONAL WEATHER ROUNDUP FOR NORTHEAST MONTANA
NATIONAL WEATHER SERVICE GLASGOW MONTANA
400 PM MDT MON AUG 31 2015

NOTE: "FAIR" INDICATES FEW OR NO CLOUDS BELOW 12,000 FEET WITH NO
SIGNIFICANT WEATHER AND/OR OBSTRUCTIONS TO VISISBILITY.

NORTHEAST MONTANA


CITY           SKY/WX    TMP DP  RH WIND       PRES   REMARKS
GLASGOW        PTSUNNY   72  37  28 SW12      29.84F
PLENTYWOOD       N/A     74  32  21 W16G26      N/A
WOLF POINT     PTSUNNY   75  40  28 W14       29.85F
JORDAN           N/A     77  35  21 NW14G21   29.86F
WINNETT          N/A     78  38  23 W7G16       N/A
SIDNEY         SUNNY     81  34  18 SW15G21   29.85S
GLENDIVE       SUNNY     81  36  19 W8G21     29.88F
MALTA            N/A     75  38  26 W8          N/A
SCOBEY           N/A     72  36  26 SW16G25   29.84S

FORT PECK REPORTS


CITY           SKY/WX    TMP DP  RH WIND       PRES   REMARKS
FORT PECK        N/A     71  48  43 SW14        N/A
THE PINES        N/A     74  35  24 SW10G18     N/A

SOUTHEAST MONTANA


CITY           SKY/WX    TMP DP  RH WIND       PRES   REMARKS
BILLINGS       PTSUNNY   80  34  19 VRB3      29.90F
MILES CITY     SUNNY     81  43  26 S9        29.87F
BAKER          SUNNY     79  42  26 SW9       29.92F
LIVINGSTON     MOSUNNY   82  32  16 SW14G24   29.93F

CENTRAL MONTANA


CITY           SKY/WX    TMP DP  RH WIND       PRES   REMARKS
HAVRE          MOSUNNY   79  35  20 W16G23    29.80F
LEWISTOWN      MOSUNNY   76  33  21 W12       29.91F
GREAT FALLS    SUNNY     76  33  21 SW25      29.88F
CUT BANK       CLOUDY    62  36  37 W16G25    29.88F
HELENA         SUNNY     80  36  20 W14       29.91F
BUTTE          SUNNY     73  32  22 W17G24    30.02F
BOZEMAN        MOSUNNY   76  36  23 N5        29.96F

WESTERN MONTANA


CITY           SKY/WX    TMP DP  RH WIND       PRES   REMARKS
MISSOULA       PTSUNNY   71  41  33 CALM      29.98F
KALISPELL      NOT AVBL

NORTH DAKOTA


CITY           SKY/WX    TMP DP  RH WIND       PRES   REMARKS
WILLISTON      SUNNY     78  33  19 W18G29    29.84F
DICKINSON      SUNNY     78  36  21 W13G24    29.89F
MINOT          SUNNY     77  39  25 SW14      29.82S
BISMARCK       MOSUNNY   84  42  22 NW10      29.87S

SOUTHERN SASKATCHEWAN


CITY           SKY/WX    TMP DP  RH WIND       PRES   REMARKS
REGINA         PTSUNNY   73  45  35 W14G23    29.72S
MOOSE JAW      PTSUNNY   75  43  31 W20G25    29.73R
ESTEVAN        PTSUNNY   75  39  27 W18G30    29.79S
SWIFT CURRENT  SUNNY     75  36  23 W25G35    29.72S



USA.gov is the U.S. government's official web portal to all federal, state and local government web resources and services.